When you browse on this site, cookies collect data to enhance your experience and personalize the content and advertising you see.
Visit our Privacy Policy to learn more. By continuing to use the site, you agree to this use of cookies and data.
  • In Czech Republic
  • List of Countries
  • For 7 days
  • Water Temperature
  • Satellite Maps
  • Weather Map
  • Weather Widgets
  • user-avatar
    Login

    Hourly Weather Wausau

    Today, 24 July, Wednesday

    Time Temperature Precipitation Wind Pressure Humidity
    00:00 +15°C° 0 mm 1 mps 729 mmHg 84%
    01:00 +15°C° 0 mm 1 mps 729 mmHg 86%
    02:00 +15°C° 0 mm 1 mps 729 mmHg 88%
    03:00 +15°C° 0 mm 1 mps 729 mmHg 91%
    04:00 +15°C° 0 mm 1 mps 729 mmHg 90%
    05:00 +16°C° 0 mm 1 mps 730 mmHg 90%
    06:00 +16°C° 0 mm 1 mps 730 mmHg 89%
    07:00 +19°C° 0 mm 2 mps 730 mmHg 83%
    08:00 +21°C° 0 mm 2 mps 730 mmHg 77%
    09:00 +24°C° 0 mm 2 mps 730 mmHg 71%
    10:00 +25°C° 0.2 mm 2 mps 730 mmHg 69%
    11:00 +27°C° 0.2 mm 2 mps 730 mmHg 66%
    12:00 +28°C° 0.2 mm 2 mps 730 mmHg 64%
    13:00 +27°C° 0.7 mm 2 mps 730 mmHg 66%
    14:00 +27°C° 0.7 mm 3 mps 729 mmHg 68%
    15:00 +27°C° 0.7 mm 3 mps 729 mmHg 70%
    16:00 +26°C° 0.3 mm 3 mps 729 mmHg 76%
    17:00 +25°C° 0.3 mm 3 mps 729 mmHg 81%
    18:00 +24°C° 0.3 mm 3 mps 729 mmHg 87%
    19:00 +21°C° 0 mm 3 mps 729 mmHg 88%
    20:00 +20°C° 0 mm 2 mps 729 mmHg 90%
    21:00 +18°C° 0 mm 2 mps 729 mmHg 92%
    22:00 +18°C° 0 mm 2 mps 729 mmHg 92%
    23:00 +18°C° 0 mm 1 mps 729 mmHg 92%

    Tomorrow, 25 July, Thursday

    Time Temperature Precipitation Wind Pressure Humidity
    00:00 +18°C° 0 mm 1 mps 729 mmHg 93%
    01:00 +18°C° 0 mm 1 mps 729 mmHg 93%
    02:00 +16°C° 0 mm 1 mps 729 mmHg 94%
    03:00 +16°C° 0 mm 1 mps 729 mmHg 95%
    04:00 +16°C° 0 mm 1 mps 729 mmHg 96%
    05:00 +18°C° 0 mm 1 mps 729 mmHg 96%
    06:00 +17°C° 0 mm 2 mps 729 mmHg 97%
    07:00 +19°C° 0 mm 2 mps 730 mmHg 91%
    08:00 +21°C° 0 mm 3 mps 730 mmHg 86%
    09:00 +22°C° 0 mm 3 mps 730 mmHg 80%
    10:00 +23°C° 0 mm 4 mps 730 mmHg 76%
    11:00 +25°C° 0 mm 4 mps 729 mmHg 72%
    12:00 +26°C° 0 mm 5 mps 729 mmHg 68%
    13:00 +26°C° 0 mm 5 mps 729 mmHg 68%
    14:00 +26°C° 0 mm 5 mps 729 mmHg 68%
    15:00 +26°C° 0 mm 5 mps 729 mmHg 68%
    16:00 +26°C° 0 mm 4 mps 728 mmHg 73%
    17:00 +25°C° 0 mm 4 mps 728 mmHg 78%
    18:00 +24°C° 0 mm 3 mps 728 mmHg 83%
    19:00 +22°C° 0 mm 3 mps 728 mmHg 85%
    20:00 +21°C° 0 mm 3 mps 728 mmHg 86%
    21:00 +21°C° 0 mm 3 mps 728 mmHg 87%
    22:00 +20°C° 0 mm 3 mps 728 mmHg 88%
    23:00 +20°C° 0 mm 4 mps 728 mmHg 88%

    Day after tomorrow, 26 July, Friday

    Time Temperature Precipitation Wind Pressure Humidity
    00:00 +20°C° 0 mm 4 mps 728 mmHg 89%
    01:00 +20°C° 0.1 mm 4 mps 728 mmHg 91%
    02:00 +20°C° 0.1 mm 4 mps 728 mmHg 92%
    03:00 +20°C° 0.1 mm 4 mps 727 mmHg 94%
    04:00 +20°C° 0 mm 5 mps 727 mmHg 93%
    05:00 +20°C° 0 mm 5 mps 727 mmHg 92%
    06:00 +20°C° 0 mm 5 mps 727 mmHg 91%
    07:00 +20°C° 0 mm 5 mps 727 mmHg 89%
    08:00 +21°C° 0 mm 6 mps 727 mmHg 86%
    09:00 +22°C° 0 mm 6 mps 727 mmHg 84%
    10:00 +23°C° 0 mm 6 mps 727 mmHg 81%
    11:00 +23°C° 0 mm 6 mps 727 mmHg 79%
    12:00 +24°C° 0 mm 6 mps 727 mmHg 77%
    13:00 +26°C° 0 mm 6 mps 727 mmHg 78%
    14:00 +26°C° 0 mm 6 mps 726 mmHg 78%
    15:00 +27°C° 0 mm 6 mps 726 mmHg 78%
    16:00 +26°C° 0.9 mm 6 mps 726 mmHg 83%
    17:00 +24°C° 0.9 mm 6 mps 726 mmHg 88%
    18:00 +23°C° 0.9 mm 5 mps 725 mmHg 92%
    19:00 +23°C° 0.2 mm 5 mps 726 mmHg 94%
    20:00 +22°C° 0.2 mm 5 mps 726 mmHg 95%
    21:00 +22°C° 0.2 mm 4 mps 726 mmHg 96%
    22:00 +22°C° 0.2 mm 4 mps 726 mmHg 97%
    23:00 +21°C° 0.2 mm 4 mps 726 mmHg 97%

    27 July, Saturday

    Time Temperature Precipitation Wind Pressure Humidity
    00:00 +21°C° 0.2 mm 4 mps 726 mmHg 97%
    01:00 +21°C° 0 mm 4 mps 726 mmHg 97%
    02:00 +21°C° 0 mm 5 mps 726 mmHg 98%
    03:00 +22°C° 0 mm 5 mps 726 mmHg 98%
    04:00 +22°C° 0 mm 5 mps 726 mmHg 97%
    05:00 +22°C° 0 mm 4 mps 727 mmHg 97%
    06:00 +22°C° 0 mm 4 mps 727 mmHg 96%
    07:00 +22°C° 0 mm 4 mps 727 mmHg 95%
    08:00 +22°C° 0 mm 4 mps 727 mmHg 93%
    09:00 +23°C° 0 mm 4 mps 727 mmHg 91%
    10:00 +25°C° 0.1 mm 4 mps 727 mmHg 88%
    11:00 +26°C° 0.1 mm 3 mps 727 mmHg 85%
    12:00 +27°C° 0.1 mm 3 mps 727 mmHg 83%
    13:00 +28°C° 0.2 mm 3 mps 727 mmHg 80%
    14:00 +28°C° 0.2 mm 4 mps 727 mmHg 78%
    15:00 +29°C° 0.2 mm 4 mps 727 mmHg 75%
    16:00 +29°C° 0.2 mm 4 mps 727 mmHg 79%
    17:00 +28°C° 0.2 mm 3 mps 726 mmHg 84%
    18:00 +28°C° 0.2 mm 3 mps 726 mmHg 88%
    19:00 +26°C° 0.4 mm 3 mps 726 mmHg 91%
    20:00 +25°C° 0.4 mm 3 mps 726 mmHg 93%
    21:00 +24°C° 0.4 mm 3 mps 726 mmHg 96%
    22:00 +22°C° 0 mm 3 mps 726 mmHg 96%
    23:00 +22°C° 0 mm 3 mps 726 mmHg 97%

    28 July, Sunday

    Time Temperature Precipitation Wind Pressure Humidity
    00:00 +22°C° 0 mm 4 mps 726 mmHg 97%
    01:00 +22°C° 0.1 mm 4 mps 726 mmHg 97%
    02:00 +21°C° 0.1 mm 4 mps 726 mmHg 97%
    03:00 +21°C° 0.1 mm 4 mps 726 mmHg 97%
    04:00 +21°C° 0 mm 4 mps 726 mmHg 96%
    05:00 +21°C° 0 mm 5 mps 726 mmHg 95%
    06:00 +21°C° 0 mm 5 mps 726 mmHg 94%
    07:00 +22°C° 0 mm 5 mps 726 mmHg 89%
    08:00 +23°C° 0 mm 6 mps 726 mmHg 84%
    09:00 +26°C° 0 mm 6 mps 726 mmHg 79%
    10:00 +26°C° 0 mm 6 mps 725 mmHg 79%
    11:00 +26°C° 0 mm 6 mps 725 mmHg 78%
    12:00 +27°C° 0 mm 6 mps 725 mmHg 78%
    13:00 +27°C° 0.1 mm 7 mps 725 mmHg 75%
    14:00 +28°C° 0.1 mm 7 mps 725 mmHg 73%
    15:00 +28°C° 0.1 mm 8 mps 725 mmHg 70%
    16:00 +27°C° 0 mm 7 mps 724 mmHg 75%
    17:00 +26°C° 0 mm 6 mps 724 mmHg 79%
    18:00 +25°C° 0 mm 5 mps 724 mmHg 83%
    19:00 +23°C° 0.3 mm 5 mps 724 mmHg 86%
    20:00 +22°C° 0.3 mm 4 mps 724 mmHg 90%
    21:00 +21°C° 0.3 mm 4 mps 724 mmHg 93%
    22:00 +21°C° 0.3 mm 4 mps 724 mmHg 95%
    23:00 +21°C° 0.3 mm 4 mps 724 mmHg 96%

    29 July, Monday

    Time Temperature Precipitation Wind Pressure Humidity
    00:00 +21°C° 0.3 mm 4 mps 724 mmHg 98%
    01:00 +21°C° 0 mm 3 mps 724 mmHg 98%
    02:00 +20°C° 0 mm 3 mps 724 mmHg 97%
    03:00 +20°C° 0 mm 2 mps 725 mmHg 97%
    04:00 +19°C° 0 mm 3 mps 725 mmHg 97%
    05:00 +18°C° 0 mm 3 mps 725 mmHg 97%
    06:00 +18°C° 0 mm 4 mps 725 mmHg 96%
    07:00 +18°C° 0 mm 4 mps 725 mmHg 94%
    08:00 +18°C° 0 mm 3 mps 725 mmHg 92%
    09:00 +18°C° 0 mm 3 mps 726 mmHg 90%
    10:00 +19°C° 0 mm 3 mps 726 mmHg 87%
    11:00 +19°C° 0 mm 3 mps 726 mmHg 84%
    12:00 +20°C° 0 mm 2 mps 726 mmHg 81%
    13:00 +21°C° 0 mm 2 mps 726 mmHg 79%
    14:00 +21°C° 0 mm 2 mps 725 mmHg 77%
    15:00 +23°C° 0 mm 2 mps 725 mmHg 75%
    16:00 +23°C° 0 mm 2 mps 725 mmHg 76%
    17:00 +23°C° 0 mm 2 mps 725 mmHg 77%
    18:00 +23°C° 0 mm 1 mps 725 mmHg 78%
    19:00 +21°C° 0 mm 1 mps 725 mmHg 83%
    20:00 +18°C° 0 mm 2 mps 725 mmHg 87%
    21:00 +16°C° 0 mm 2 mps 725 mmHg 91%
    22:00 +16°C° 0 mm 2 mps 725 mmHg 92%
    23:00 +15°C° 0 mm 2 mps 725 mmHg 93%
    Show more